Weather History for KMDH - January, 2012

Change the Weather History Date:

Monday, January 2, 2012

  Actual Average Record
Temperature  
Mean Temperature 28 °F -  
Max Temperature 35 °F 38 °F - (-1)
Min Temperature 21 °F 21 °F - (-1)
Degree Days  
Heating Degree Days 37    
Moisture  
Dew Point 12 °F    
Average Humidity 48    
Maximum Humidity 60    
Minimum Humidity 34    
Precipitation  
Precipitation 0.00 in - - ()
Sea Level Pressure  
Sea Level Pressure 30.40 in    
Wind  
Wind Speed 15 mph (NW)    
Max Wind Speed 24 mph    
Max Gust Speed 36 mph    
Visibility 10 miles    
Events      
Averages and records for this station are not official NWS values.
T = Trace of Precipitation, MM = Missing Value Source: NWS Daily Summary

Daily Weather History Graph

Daily Weather History Graph

Search for Another Location

Airport or City:

Trip Planner

Search our weather history database for the weather conditions in past years. The results will help you decide how hot, cold, wet, or windy it might be!

Date:

Astronomy

Jan. 02, 2012 Rise Set
Actual Time 7:12 AM CST 4:49 PM CST
Civil Twilight 6:43 AM CST 5:18 PM CST
Nautical Twilight 6:10 AM CST 5:51 PM CST
Astronomical Twilight 5:38 AM CST 6:23 PM CST
Moon 12:03 PM CST (1/2) 1:08 AM CST (1/2)
Length of Visible Light 10h 35m
Length of Day
9h 36m
Waxing Gibbous, 64% of the Moon is Illuminated
Jan 2
Waxing Gibbous
Jan 9
Full
Jan 16
Last Quarter
Jan 23
New
Jan 30
First Quarter

Hourly Weather History & Observations

Time (CST) Temp. Windchill Dew Point Humidity Pressure Visibility Wind Dir Wind Speed Gust Speed Precip Events Conditions
12:52 AM 35.1 °F 25.5 °F 15.1 °F 44% 30.34 in 10.0 mi NW 15.0 mph 24.2 mph N/A   Clear
1:52 AM 34.0 °F 24.6 °F 16.0 °F 48% 30.35 in 10.0 mi NW 13.8 mph 23.0 mph N/A   Clear
2:52 AM 32.0 °F 23.6 °F 16.0 °F 52% 30.35 in 10.0 mi WNW 10.4 mph 17.3 mph N/A   Clear
3:52 AM 30.9 °F 21.7 °F 15.1 °F 52% 30.36 in 10.0 mi WNW 11.5 mph 20.7 mph N/A   Clear
4:52 AM 30.0 °F 21.1 °F 15.1 °F 54% 30.35 in 10.0 mi WNW 10.4 mph - N/A   Clear
5:52 AM 28.9 °F 19.8 °F 15.1 °F 56% 30.34 in 10.0 mi West 10.4 mph - N/A   Clear
6:52 AM 28.9 °F 18.2 °F 14.0 °F 54% 30.35 in 10.0 mi WNW 13.8 mph 24.2 mph N/A   Clear
7:52 AM 28.9 °F 18.2 °F 15.1 °F 56% 30.36 in 10.0 mi WNW 13.8 mph 23.0 mph N/A   Mostly Cloudy
8:52 AM 30.0 °F 16.6 °F 14.0 °F 51% 30.38 in 10.0 mi NW 23.0 mph 33.4 mph N/A   Overcast
9:52 AM 30.9 °F 17.5 °F 12.9 °F 47% 30.40 in 10.0 mi WNW 24.2 mph 32.2 mph N/A   Overcast
10:52 AM 32.0 °F 19.5 °F 12.0 °F 44% 30.38 in 10.0 mi NW 21.9 mph 28.8 mph N/A   Scattered Clouds
11:52 AM 33.1 °F 21.2 °F 10.9 °F 40% 30.36 in 10.0 mi NW 20.7 mph 31.1 mph N/A   Mostly Cloudy
12:52 PM 34.0 °F 22.4 °F 9.0 °F 35% 30.34 in 10.0 mi WNW 20.7 mph 29.9 mph N/A   Partly Cloudy
1:52 PM 34.0 °F 21.8 °F 8.1 °F 34% 30.34 in 10.0 mi WNW 23.0 mph 29.9 mph N/A   Partly Cloudy
2:52 PM 33.1 °F 20.9 °F 7.0 °F 34% 30.36 in 10.0 mi NW 21.9 mph 35.7 mph N/A   Mostly Cloudy
3:52 PM 33.1 °F 22.2 °F 9.0 °F 37% 30.38 in 10.0 mi NNW 17.3 mph 28.8 mph N/A   Mostly Cloudy
4:52 PM 30.9 °F 19.8 °F 9.0 °F 40% 30.40 in 10.0 mi NW 16.1 mph 23.0 mph N/A   Mostly Cloudy
5:52 PM 27.0 °F 15.2 °F 12.9 °F 56% 30.45 in 10.0 mi North 15.0 mph 26.5 mph N/A   Overcast
6:52 PM 25.0 °F 13.6 °F 10.0 °F 53% 30.48 in 10.0 mi North 12.7 mph 23.0 mph N/A   Mostly Cloudy
7:52 PM 26.1 °F 13.6 °F 10.0 °F 51% 30.49 in 10.0 mi NNW 16.1 mph 21.9 mph N/A   Mostly Cloudy
8:52 PM 25.0 °F 15.5 °F 10.0 °F 53% 30.50 in 10.0 mi NNW 9.2 mph - N/A   Clear
9:52 PM 21.9 °F 14.5 °F 10.0 °F 60% 30.51 in 10.0 mi NNW 5.8 mph - N/A   Clear
10:52 PM 23.0 °F 11.7 °F 10.0 °F 58% 30.51 in 10.0 mi NNW 11.5 mph - N/A   Clear
11:52 PM 23.0 °F 12.4 °F 9.0 °F 55% 30.51 in 10.0 mi NNW 10.4 mph - N/A   Clear